EW4221 Weather Reports


Display with metric or nautical units.
time (UTC)temp
F
wind
direction
speed
MPH
gust
MPH
rain 1hr
in
rain 24hr
in
rain mn
in
humidity
%
barometer
mb
20260901024527 68 256 2.0 3.0 0.00 0.34 0.34 97 1015.8
20260901023026 68 212 1.0 5.0 0.00 0.34 0.34 97 1015.8
20260901021543 68 190 1.0 4.0 0.00 0.34 0.34 97 1015.7
20260901020025 67 223 1.0 4.0 0.00 0.34 0.34 97 1016.0
20260901014525 68 211 0.0 3.0 0.00 0.34 0.34 96 1016.3
20260901013124 68 197 1.0 4.0 0.00 0.34 0.34 96 1016.2
20260901011523 68 233 0.0 4.0 0.00 0.34 0.34 96 1016.4
20260901010039 68 242 1.0 5.0 0.00 0.34 0.34 96 1016.3
20260901004522 68 215 1.0 4.0 0.00 0.34 0.34 96 1016.1
20260901003027 68 197 2.0 4.0 0.00 0.34 0.34 96 1015.8
20260901001520 68 221 2.0 5.0 0.00 0.34 0.34 96 1015.7
20260901000020 68 233 1.0 4.0 0.00 0.34 0.34 96 1015.4
20260831234519 68 212 1.0 4.0 0.00 0.34 0.34 96 1015.5
20260831233018 68 235 0.0 2.0 0.00 0.34 0.34 96 1015.5
20260831231518 68 179 0.0 2.0 0.00 0.34 0.34 96 1015.7
20260831230016 68 217 1.0 2.0 0.00 0.34 0.34 96 1015.7
20260831224515 68 142 0.0 3.0 0.01 0.34 0.34 96 1015.7
20260831223021 68 179 1.0 4.0 0.01 0.34 0.34 96 1016.0
20260831221515 68 167 2.0 5.0 0.01 0.34 0.34 95 1016.1
20260831220010 68 139 1.0 4.0 0.01 0.34 0.34 95 1016.2
20260831214510 68 179 1.0 4.0 0.00 0.33 0.33 96 1016.4
20260831213008 68 178 2.0 4.0 0.00 0.33 0.33 96 1016.3
20260831211509 68 175 1.0 6.0 0.01 0.33 0.33 96 1016.4
20260831210012 68 189 1.0 5.0 0.01 0.33 0.33 96 1016.6
20260831204508 68 160 2.0 4.0 0.01 0.33 0.33 96 1016.5
20260831203010 68 254 2.0 4.0 0.01 0.33 0.33 96 1016.8
20260831201503 68 227 1.0 5.0 0.00 0.32 0.32 95 1016.6
20260831200005 68 192 1.0 3.0 0.00 0.32 0.32 95 1016.7
20260831194641 68 219 0.0 2.0 0.00 0.32 0.32 95 1016.9
20260831193100 68 218 0.0 2.0 0.00 0.32 0.32 95 1017.1
20260831191601 68 213 1.0 7.0 0.00 0.32 0.32 95 1017.0
20260831184558 67 226 2.0 9.0 0.00 0.32 0.32 96 1017.1
20260831183052 67 177 3.0 9.0 0.02 0.32 0.32 96 1017.2
20260831181552 67 188 4.0 10.0 0.07 0.32 0.32 96 1017.3
20260831180049 67 163 3.0 9.0 0.10 0.32 0.32 96 1017.5
20260831174548 66 190 3.0 7.0 0.14 0.32 0.32 96 1017.7
20260831173043 66 205 2.0 6.0 0.15 0.28 0.28 96 1017.9
20260831171546 65 212 1.0 6.0 0.15 0.25 0.25 96 1018.2
20260831170042 65 222 2.0 6.0 0.17 0.21 0.21 96 1018.3
20260831164541 65 198 2.0 5.0 0.18 0.18 0.18 95 1018.4
20260831163041 65 196 2.0 4.0 0.14 0.14 0.14 95 1018.6
20260831161541 66 207 1.0 4.0 0.10 0.10 0.10 94 1018.7
20260831160040 66 200 1.0 4.0 0.04 0.04 0.04 94 1018.6
20260831154541 66 190 2.0 5.0 0.00 0.00 0.00 93 1018.5
20260831153041 66 196 2.0 6.0 0.00 0.00 0.00 93 1018.4
20260831151537 66 171 2.0 8.0 0.00 0.00 0.00 93 1018.3
20260831150035 66 182 3.0 8.0 0.00 0.00 0.00 93 1018.4
20260831144706 66 190 2.0 7.0 0.00 0.00 0.00 93 1018.4
20260831143036 66 218 2.0 5.0 0.00 0.00 0.00 94 1018.2
20260831141534 65 186 4.0 9.0 0.00 0.00 0.00 93 1018.1
20260831140035 66 158 4.0 10.0 0.00 0.00 0.00 94 1018.2
20260831134530 65 146 3.0 6.0 0.00 0.00 0.00 94 1018.2
20260831133033 65 226 1.0 5.0 0.00 0.00 0.00 94 1018.4
20260831131528 65 211 3.0 6.0 0.00 0.00 0.00 94 1018.4
20260831130026 65 208 1.0 3.0 0.00 0.00 0.00 95 1018.5
20260831124525 65 167 2.0 3.0 0.00 0.00 0.00 95 1018.5
20260831123031 65 201 1.0 4.0 0.00 0.00 0.00 96 1018.5
20260831121531 64 202 0.0 0.0 0.00 0.00 0.00 96 1018.6
20260831120027 64 212 0.0 0.0 0.00 0.00 0.00 96 1018.6
20260831114529 64 212 0.0 0.0 0.00 0.00 0.00 96 1018.6
20260831113015 63 207 0.0 0.0 0.00 0.00 0.00 96 1018.6
20260831111512 63 188 0.0 0.0 0.00 0.00 0.00 96 1018.6
20260831110015 63 200 0.0 0.0 0.00 0.00 0.00 95 1018.5
20260831104525 63 200 0.0 0.0 0.00 0.00 0.00 95 1018.4
20260831103009 63 200 0.0 0.0 0.00 0.00 0.00 95 1018.2
20260831101509 63 200 0.0 0.0 0.00 0.00 0.00 95 1018.2
20260831100007 63 200 0.0 0.0 0.00 0.00 0.00 95 1018.2
20260831094508 63 200 0.0 0.0 0.00 0.00 0.00 95 1018.1
20260831093015 63 200 0.0 0.0 0.00 0.00 0.00 95 1018.2
20260831091506 63 200 0.0 0.0 0.00 0.00 0.00 94 1018.2
20260831090005 63 200 0.0 0.0 0.00 0.00 0.00 94 1018.3
20260831084504 63 155 0.0 0.0 0.00 0.00 0.00 94 1018.3
20260831083003 63 155 0.0 0.0 0.00 0.00 0.00 94 1018.3
20260831081505 63 125 0.0 0.0 0.00 0.00 0.00 94 1018.2
20260831080000 63 59 0.0 0.0 0.00 0.00 0.00 93 1018.1
20260831074607 63 59 0.0 0.0 0.00 0.00 0.00 93 1018.3
20260831073103 63 81 0.0 0.0 0.00 0.00 0.00 93 1018.2
20260831071608 63 47 0.0 0.0 0.00 0.00 0.00 92 1018.3
20260831070057 63 161 0.0 0.0 0.00 0.00 0.00 92 1018.3
20260831064557 63 161 0.0 0.0 0.00 0.00 0.00 92 1018.3
20260831063058 63 98 0.0 0.0 0.00 0.00 0.00 92 1018.4
20260831061556 63 113 0.0 0.0 0.00 0.00 0.00 91 1018.4
20260831060101 64 113 0.0 0.0 0.00 0.00 0.00 91 1018.5
20260831054551 64 67 0.0 0.0 0.00 0.00 0.00 91 1018.7
20260831053102 64 67 0.0 0.0 0.00 0.00 0.00 90 1018.8
20260831051550 64 54 0.0 0.0 0.00 0.00 0.00 91 1018.8
20260831050106 64 54 0.0 0.0 0.00 0.00 0.00 91 1018.9
20260831044549 64 54 0.0 0.0 0.00 0.00 0.00 91 1018.7
20260831043052 64 54 0.0 0.0 0.00 0.00 0.00 91 1018.7
20260831041557 64 54 0.0 0.0 0.00 0.00 0.00 90 1018.7
20260831040045 64 54 0.0 0.0 0.00 0.00 0.00 90 1018.7
20260831034545 64 54 0.0 0.0 0.00 0.00 0.00 90 1018.7
20260831033103 64 54 0.0 0.0 0.00 0.00 0.00 89 1018.9
20260831031551 64 54 0.0 0.0 0.00 0.00 0.00 89 1019.1
20260831030044 64 54 0.0 0.0 0.00 0.00 0.00 88 1018.9